STARLINK-2712, 48674

Orbit data source: Space-Track

STARLINK-2712, 48674 is a payload satellite owned by SpaceX/Seattle (US) in LEO that was launched on Wed, 26 May 2021 UTC via an FALCON 9 launch vehicle from the Air Force Eastern Test Range (AFETR). Payload-class satellites include a variety of spacecraft equipped with specific instruments for various scientific and technological missions. These include communications satellites like Starlink; space stations such as the ISS; scientific satellites like the Hubble; Earth observation satellites from companies like Planet Labs, Umbra, and HawkEye 360; GPS; miniature CubeSats for education and research; and military/defense satellites.

Loading next visibility...
Identifier
48674, 2021-044AN
Orbit
LEO
Country
Flag of USUS
Related business
Manufacturer
SpaceX/Seattle
Mission
Operational Commercial Communications
Bus & Motor
STARLINK, Unknown motor
Mass
260 kg wet, ~248 kg dry
Launch date (UTC)
2021-05-26 (5 years ago)
Launch vehicle
FALCON 9
Launch site
Air Force Eastern Test Range (AFETR)
Object type
Payload
Rocket body
Debris
Shape & HBR
Box + 1 Pan, 10.1 m
Radar Cross Section
13.562 m², Large (>1 m²)

Expand to show TLE details & history
Last TLE update: 22 hours ago

TLE from 22 hours ago
0 STARLINK-2712
1 48674U 21044AN  25348.70121008  .00002401  00000-0  18004-3 0  9994
2 48674  53.0547 133.2641 0001128  94.7846 265.3272 15.06392967251031
Epoch: 2025-12-14T16:49Z
TLE epoch observation values (Epoch: 2025-12-14T16:49:44.550Z)
Latitude
-0.00003°
Longitude
157.2181°
Altitude
548.176 km
Speed
7.589 km/s
True Right ascension
08h 53m 03s
True Declination
0° 00' 00"
Sunlit
Object was in full shadow at epoch
Visualization orbit readout
Latitude
Unknown
Longitude
Unknown
Altitude
Unknown
Speed
Unknown
Apparent Right ascension
Unknown
Apparent Declination
Unknown
Sunlit
N/A
Visualization observer readout
Local Sidereal Time
13:25:43
Azimuth
Unknown
Elevation
Unknown
Doppler factor
Unknown
Orbital elements
Apogee altitude
548.285 km
Perigee altitude
546.723 km
Semi-major axis
6,925.641 km
Eccentricity
0.00011
Inclination
53.0547°
RAAN
133.2641°
Arg. of periapsis
94.7846°
True anomaly
265.31432°
Mean anomaly
265.3272°
Eccentric anomaly
265.32076°
Mean motion
3.76577 °/min
Orbital period
95.6 mins
BSTAR
0.00018004
Loading maneuver chart data...
Computing Atmospheric mass density...
Loading historical data...
Loading historical data...
Loading historical data...
Loading historical data...
Loading historical data...
Loading historical data...
Loading historical data...

Documentation

Showing up to 5 results
|